Weather History for KMCB - July, 2013

Change the Weather History Date:

Monday, July 29, 2013

  Actual Average Record
Temperature  
Mean Temperature 82 °F -  
Max Temperature 93 °F 92 °F 100 °F (1986)
Min Temperature 73 °F 71 °F 66 °F (1952)
Cooling Degree Days 17    
Growing Degree Days 32 (Base 50)    
Moisture  
Dew Point 72 °F    
Average Humidity 74    
Maximum Humidity 94    
Minimum Humidity 48    
Precipitation  
Precipitation 0.00 in - - ()
Sea Level Pressure  
Sea Level Pressure 30.07 in    
Wind  
Wind Speed 1 mph (ENE)    
Max Wind Speed 7 mph    
Max Gust Speed -    
Visibility 9 miles    
Events      
Averages and records for this station are not official NWS values.
T = Trace of Precipitation, MM = Missing Value Source: NWS Daily Summary

Daily Weather History Graph

Daily Weather History Graph

Search for Another Location

Airport or City:

Trip Planner

Search our weather history database for the weather conditions in past years. The results will help you decide how hot, cold, wet, or windy it might be!

Date:

Astronomy

Jul. 29, 2013 Rise Set
Actual Time 6:17 AM CDT 7:59 PM CDT
Civil Twilight 5:50 AM CDT 8:25 PM CDT
Nautical Twilight 5:18 AM CDT 8:57 PM CDT
Astronomical Twilight 4:44 AM CDT 9:31 PM CDT
Moon No Moon Rise 1:25 PM CDT (7/29)
Length of Visible Light 14h 35m
Length of Day
13h 42m
Waning Gibbous, 50% of the Moon is Illuminated
Jul 29
Waning Gibbous
Jul 29
Last Quarter
Aug 6
New
Aug 14
First Quarter
Aug 20
Full

Hourly Weather History & Observations

Time (CDT) Temp. Heat Index Dew Point Humidity Pressure Visibility Wind Dir Wind Speed Gust Speed Precip Events Conditions
12:53 AM 73.0 °F - 71.1 °F 93% 30.01 in 9.0 mi Calm Calm - N/A   Clear
1:53 AM 73.0 °F - 71.1 °F 93% 30.01 in 8.0 mi Calm Calm - N/A   Clear
2:53 AM 73.0 °F - 71.1 °F 93% 30.01 in 9.0 mi Calm Calm - N/A   Partly Cloudy
3:53 AM 73.0 °F - 71.1 °F 93% 30.01 in 10.0 mi Calm Calm - N/A   Clear
4:53 AM 75.0 °F - 72.0 °F 90% 30.03 in 9.0 mi Calm Calm - N/A   Clear
5:53 AM 75.0 °F - 73.0 °F 94% 30.05 in 7.0 mi Calm Calm - N/A   Mostly Cloudy
6:53 AM 75.0 °F - 73.0 °F 94% 30.07 in 6.0 mi Calm Calm - N/A   Mostly Cloudy
7:53 AM 78.1 °F - 73.0 °F 84% 30.09 in 9.0 mi Calm Calm - N/A   Clear
8:53 AM 82.0 °F 87.4 °F 73.0 °F 74% 30.10 in 10.0 mi Variable 3.5 mph - N/A   Clear
9:53 AM 84.9 °F 90.7 °F 72.0 °F 65% 30.11 in 10.0 mi Calm Calm - N/A   Clear
10:53 AM 86.0 °F 92.2 °F 72.0 °F 63% 30.11 in 10.0 mi East 3.5 mph - N/A   Scattered Clouds
11:53 AM 88.0 °F 94.7 °F 72.0 °F 59% 30.10 in 10.0 mi Variable 4.6 mph - N/A   Mostly Cloudy
12:53 PM 89.1 °F 96.0 °F 72.0 °F 57% 30.09 in 10.0 mi ENE 5.8 mph - N/A   Partly Cloudy
1:53 PM 89.1 °F 95.0 °F 71.1 °F 55% 30.08 in 10.0 mi Calm Calm - N/A   Partly Cloudy
2:53 PM 91.0 °F 96.6 °F 70.0 °F 50% 30.07 in 10.0 mi Calm Calm - N/A   Clear
3:53 PM 91.9 °F 99.5 °F 72.0 °F 52% 30.06 in 10.0 mi ENE 6.9 mph - N/A   Partly Cloudy
4:53 PM 91.0 °F 97.6 °F 71.1 °F 52% 30.06 in 10.0 mi Calm Calm - N/A   Partly Cloudy
5:53 PM 91.0 °F 95.6 °F 69.1 °F 48% 30.06 in 10.0 mi East 3.5 mph - N/A   Clear
6:53 PM 89.1 °F 97.0 °F 73.0 °F 59% 30.07 in 10.0 mi Calm Calm - N/A   Clear
7:53 PM 84.9 °F 93.3 °F 75.0 °F 72% 30.06 in 10.0 mi Calm Calm - N/A   Clear
8:53 PM 82.9 °F 90.2 °F 75.0 °F 77% 30.07 in 10.0 mi Calm Calm - N/A   Clear
9:53 PM 79.0 °F - 75.0 °F 88% 30.09 in 10.0 mi Calm Calm - N/A   Clear
10:53 PM 78.1 °F - 73.9 °F 87% 30.10 in 9.0 mi North - - N/A   Clear
11:53 PM 77.0 °F - 73.9 °F 90% 30.10 in 8.0 mi Calm Calm - N/A   Clear